Location: Boiro
(42.6475°N, 8.8834°W)
Time: 18:29:52
(UTC+01:00)

Transit 2A - Pass Details

Date: 01 December 2021
Orbit: 591 x 967 km, 66.7° (Epoch: 20 January)

Event Time Altitude Azimuth Distance (km) Brightness Sun altitude
Rises 02:59:27 0° 228° (SW) 3,274 - -61.3°
Reaches altitude 10° 03:01:50 10° 234° (SW) 2,406 - -60.9°
Maximum altitude 03:07:15 48° 308° (NW) 1,134 - -60.1°
Drops below altitude 10° 03:13:11 10° 22° (NNE) 2,637 - -59.2°
Sets 03:15:55 0° 28° (NNE) 3,619 - -58.8°
